Ord, NE

11:26 AM CDT on August 25, 2016 (GMT -0500)
Sharp

Weather History for KODX - January, 2014

Change the Weather History Date:

Saturday, January 4, 2014

  Actual Average Record
Temperature  
Mean Temperature 25 °F 24 °F  
Max Temperature 41 °F 36 °F 58 °F (2012)
Min Temperature 8 °F 12 °F -9 °F (1999)
Degree Days  
Heating Degree Days 40 41  
Month to date heating degree days 183 164  
Since 1 July heating degree days 2836 2888  
Cooling Degree Days 0 0  
Month to date cooling degree days 0 0  
Year to date cooling degree days 0 0  
Moisture  
Dew Point 13 °F    
Average Humidity 64    
Maximum Humidity 78    
Minimum Humidity 49    
Precipitation  
Precipitation 0.00 in 0.01 in 0.43 in (1944)
Month to date precipitation 0.06 0.04  
Year to date precipitation 0.06 0.04  
Sea Level Pressure  
Sea Level Pressure 30.03 in    
Wind  
Wind Speed 17 mph (North)    
Max Wind Speed 32 mph    
Max Gust Speed 40 mph    
Visibility 9 miles    
Events Snow    
T = Trace of Precipitation, MM = Missing Value Source: NWS Daily Summary

Daily Weather History Graph

Daily Weather History Graph

Search for Another Location

Airport or City:

Trip Planner

Search our weather history database for the weather conditions in past years. The results will help you decide how hot, cold, wet, or windy it might be!

Date:

Astronomy

Jan. 04, 2014 Rise Set
Actual Time 8:02 AM CST 5:19 PM CST
Civil Twilight 7:31 AM CST 5:50 PM CST
Nautical Twilight 6:56 AM CST 6:25 PM CST
Astronomical Twilight 6:23 AM CST 6:58 PM CST
Moon 10:06 AM CST (1/4) 9:44 PM CST (1/4)
Length of Visible Light 10h 18m
Length of Day
9h 16m
Waxing Crescent, 15% of the Moon is Illuminated
Jan 4
Waxing Crescent
Jan 7
First Quarter
Jan 15
Full
Jan 23
Last Quarter
Jan 30
New

Hourly Weather History & Observations

Time (CST) Temp. Windchill Dew Point Humidity Pressure Visibility Wind Dir Wind Speed Gust Speed Precip Events Conditions
12:53 AM 39.9 °F 33.4 °F 30.9 °F 70% 29.68 in 10.0 mi WNW 10.4 mph - N/A   Overcast
1:53 AM 37.0 °F 30.4 °F 28.9 °F 73% 29.70 in 10.0 mi NW 9.2 mph - N/A   Mostly Cloudy
2:53 AM 36.0 °F 23.2 °F 24.1 °F 62% 29.76 in 10.0 mi NNW 28.8 mph 36.8 mph N/A   Mostly Cloudy
3:53 AM 32.0 °F 17.4 °F 26.1 °F 79% 29.79 in 10.0 mi NNW 31.1 mph 40.3 mph N/A   Mostly Cloudy
4:05 AM 30.9 °F 17.2 °F 25.0 °F 79% 29.76 in 10.0 mi NNW 25.3 mph 35.7 mph N/A   Overcast
4:17 AM 30.0 °F 15.4 °F 23.0 °F 75% 29.78 in 10.0 mi NNW 27.6 mph 38.0 mph N/A   Overcast
4:53 AM 26.1 °F 12.3 °F 18.0 °F 71% 29.89 in 10.0 mi NNW 19.6 mph 28.8 mph N/A   Overcast
5:53 AM 23.0 °F 8.0 °F 15.1 °F 72% 29.93 in 10.0 mi North 20.7 mph 31.1 mph N/A   Overcast
6:15 AM 23.0 °F 8.7 °F 15.1 °F 72% 29.87 in 10.0 mi North 18.4 mph 23.0 mph N/A   Overcast
6:25 AM 21.9 °F 7.3 °F 15.1 °F 75% 29.88 in 10.0 mi North 18.4 mph 27.6 mph N/A   Overcast
6:53 AM 21.9 °F 7.3 °F 15.1 °F 75% 29.96 in 10.0 mi North 18.4 mph - N/A   Overcast
7:53 AM 19.9 °F 4.3 °F 14.0 °F 78% 29.99 in 10.0 mi North 19.6 mph - N/A   Overcast
8:53 AM 19.0 °F 4.0 °F 12.9 °F 77% 30.04 in 4.0 mi North 17.3 mph 25.3 mph 0.00 in Snow Light Snow
9:40 AM 19.0 °F 4.5 °F 14.0 °F 81% 29.99 in 2.5 mi North 16.1 mph - 0.00 in Snow Light Snow
9:53 AM 19.9 °F 8.6 °F 14.0 °F 78% 30.09 in 2.5 mi North 10.4 mph - 0.00 in Snow Light Snow
10:08 AM 19.9 °F 7.3 °F 14.0 °F 78% 30.04 in 3.0 mi North 12.7 mph - 0.00 in Snow Light Snow
10:25 AM 19.9 °F 7.3 °F 14.0 °F 78% 30.04 in 2.5 mi North 12.7 mph - 0.00 in Snow Light Snow
10:39 AM 21.0 °F 7.6 °F 15.1 °F 78% 30.04 in 3.0 mi North 15.0 mph - 0.00 in Snow Light Snow
10:53 AM 21.0 °F 7.1 °F 15.1 °F 78% 30.11 in 5.0 mi North 16.1 mph - 0.00 in Snow Light Snow
11:53 AM 24.1 °F 9.4 °F 14.0 °F 65% 30.06 in 10.0 mi North 20.7 mph 28.8 mph 0.00 in   Mostly Cloudy
12:13 PM 24.1 °F 9.8 °F 12.9 °F 62% 29.99 in 10.0 mi NNW 19.6 mph 28.8 mph N/A   Scattered Clouds
12:53 PM 23.0 °F 8.0 °F 12.0 °F 63% 30.08 in 10.0 mi NNW 20.7 mph 27.6 mph N/A   Partly Cloudy
1:53 PM 23.0 °F 9.6 °F 9.0 °F 55% 30.09 in 10.0 mi North 16.1 mph - N/A   Clear
2:53 PM 23.0 °F 8.3 °F 6.1 °F 48% 30.10 in 10.0 mi North 19.6 mph - N/A   Clear
3:53 PM 23.0 °F 9.6 °F 7.0 °F 50% 30.13 in 10.0 mi North 16.1 mph - N/A   Mostly Cloudy
4:53 PM 19.9 °F 4.3 °F 3.9 °F 50% 30.19 in 10.0 mi North 19.6 mph 24.2 mph N/A   Overcast
5:53 PM 18.0 °F 3.1 °F 3.0 °F 52% 30.21 in 10.0 mi North 16.1 mph - N/A   Clear
6:53 PM 16.0 °F 1.1 °F 3.0 °F 57% 30.25 in 10.0 mi North 15.0 mph - N/A   Clear
7:53 PM 14.0 °F -2.5 °F 3.0 °F 62% 30.27 in 10.0 mi North 17.3 mph - N/A   Clear
8:53 PM 10.9 °F -2.6 °F -0.0 °F 61% 30.31 in 10.0 mi North 10.4 mph - N/A   Clear
9:53 PM 10.0 °F -4.5 °F -0.0 °F 64% 30.31 in 10.0 mi North 11.5 mph - N/A   Clear
10:53 PM 9.0 °F -7.9 °F -0.9 °F 64% 30.33 in 10.0 mi North 15.0 mph - N/A   Clear
11:53 PM 8.1 °F -7.7 °F -0.0 °F 70% 30.35 in 10.0 mi North 12.7 mph - N/A   Partly Cloudy